Tracking 23762 objects as of 21-Oct-2021
HD Live streaming from Space Station
objects crossing your sky now

STARLINK-1239

Track STARLINK-1239 now!
10-day predictions
STARLINK-1239 is classified as:


NORAD ID: 45193
Int'l Code: 2020-012R
Perigee: 553.6 km
Apogee: 555.2 km
Inclination: 53.1 °
Period: 95.6 minutes
Semi major axis: 6925 km
RCS: Unknown
Launch date: February 17, 2020
Source: United States (US)
Launch site: AIR FORCE EASTERN TEST RANGE (AFETR)
aabbcc
Your satellite tracking list
Your tracking list is empty




NASA's NSSDC Master Catalog

Two Line Element Set (TLE):
1 45193U 20012R   21294.73638234  .00000192  00000-0  31817-4 0  9997
2 45193  53.0560  29.0888 0001192  93.0830 267.0295 15.06391329 92757
Source of the keplerian elements: AFSPC